EZS34AF LKPR-LSGG

Flight info

Callsign EZS34AF
Flight time 1h 14m
Altitude 38000
Route BALTU DCT DONAD DCT OKG L984 KULOK Z715 ANELA N869 NATOR DCT LUTIX DCT BENOT
Aircraft A320/M-SDE2E3FGHIJ1RWXYZ/LB1

Departure

Time 2026-05-01 13:29
Airport Václav Havel Airport Prague (LKPR)

Arrival

Time 2026-05-01 14:43
Airport Geneva International Airport (LSGG)
Time Latitude Longitude Altitude Speed Heading
2026-05-01 12:53 50.10367 14.26744 1171 ft 0 kts 35°
2026-05-01 13:20 50.10358 14.26733 1170 ft 4 kts 35°
2026-05-01 13:20 50.10337 14.26714 1170 ft 4 kts
2026-05-01 13:21 50.10327 14.26716 1170 ft 0 kts 304°
2026-05-01 13:22 50.10328 14.26715 1170 ft 0 kts 304°
2026-05-01 13:22 50.10334 14.26701 1170 ft 3 kts 305°
2026-05-01 13:23 50.10350 14.26645 1172 ft 7 kts 270°
2026-05-01 13:23 50.10307 14.26579 1171 ft 10 kts 214°
2026-05-01 13:23 50.10247 14.26533 1176 ft 9 kts 184°
2026-05-01 13:23 50.10201 14.26595 1176 ft 11 kts 127°
2026-05-01 13:24 50.10151 14.26698 1176 ft 8 kts 127°
2026-05-01 13:24 50.10109 14.26785 1184 ft 13 kts 127°
2026-05-01 13:24 50.10047 14.26912 1192 ft 16 kts 127°
2026-05-01 13:25 50.09883 14.27251 1202 ft 19 kts 128°
2026-05-01 13:25 50.09813 14.27373 1204 ft 12 kts 135°
2026-05-01 13:25 50.09760 14.27455 1205 ft 11 kts 135°
2026-05-01 13:25 50.09695 14.27554 1206 ft 15 kts 135°
2026-05-01 13:26 50.09612 14.27681 1211 ft 17 kts 135°
2026-05-01 13:26 50.09533 14.27804 1212 ft 15 kts 135°
2026-05-01 13:26 50.09466 14.27906 1215 ft 14 kts 135°
2026-05-01 13:26 50.09380 14.28038 1215 ft 17 kts 135°
2026-05-01 13:27 50.09322 14.28129 1215 ft 11 kts 135°
2026-05-01 13:27 50.09271 14.28207 1214 ft 10 kts 136°
2026-05-01 13:27 50.09141 14.28258 1211 ft 10 kts 212°
2026-05-01 13:28 50.09077 14.28103 1208 ft 10 kts 304°
2026-05-01 13:28 50.09165 14.27919 1212 ft 50 kts 307°
2026-05-01 13:29 50.10121 14.25935 1251 ft 165 kts 307°
2026-05-01 13:29 50.11525 14.23085 2632 ft 167 kts 309°
2026-05-01 13:30 50.14400 14.17110 5024 ft 196 kts 308°
2026-05-01 13:31 50.16218 14.13333 5737 ft 245 kts 308°
2026-05-01 13:31 50.19602 14.06273 7861 ft 284 kts 309°
2026-05-01 13:32 50.21822 14.01044 9632 ft 298 kts 294°
2026-05-01 13:33 50.21390 13.90939 11337 ft 345 kts 251°
2026-05-01 13:33 50.19836 13.83706 12842 ft 356 kts 251°
2026-05-01 13:34 50.18251 13.76259 14346 ft 367 kts 252°
2026-05-01 13:34 50.16631 13.68612 15700 ft 375 kts 252°
2026-05-01 13:35 50.14983 13.60824 17042 ft 382 kts 252°
2026-05-01 13:35 50.14146 13.56876 17726 ft 385 kts 252°
2026-05-01 13:35 50.12728 13.50232 18823 ft 391 kts 252°
2026-05-01 13:36 50.11567 13.44824 19607 ft 395 kts 252°
2026-05-01 13:36 50.10987 13.42130 19993 ft 397 kts 252°
2026-05-01 13:36 50.09282 13.33879 21146 ft 403 kts 258°
2026-05-01 13:37 50.08869 13.29567 21707 ft 403 kts 269°
2026-05-01 13:37 50.08765 13.25198 22275 ft 405 kts 270°
2026-05-01 13:37 50.08658 13.20794 22832 ft 408 kts 270°
2026-05-01 13:37 50.08543 13.16360 23368 ft 411 kts 270°
2026-05-01 13:38 50.08296 13.07408 24366 ft 417 kts 270°
2026-05-01 13:38 50.08166 13.02893 24814 ft 419 kts 270°
2026-05-01 13:38 50.08035 12.98293 25275 ft 421 kts 270°
2026-05-01 13:39 50.07917 12.93786 25712 ft 423 kts 270°
2026-05-01 13:39 50.07806 12.89147 26155 ft 425 kts 270°
2026-05-01 13:39 50.07698 12.84543 26593 ft 426 kts 270°
2026-05-01 13:39 50.07586 12.79922 27043 ft 428 kts 270°
2026-05-01 13:40 50.07469 12.75285 27479 ft 430 kts 270°
2026-05-01 13:40 50.07348 12.70629 27902 ft 432 kts 270°
2026-05-01 13:40 50.07227 12.66016 28313 ft 434 kts 270°
2026-05-01 13:40 50.07098 12.61253 28729 ft 436 kts 270°
2026-05-01 13:41 50.06972 12.56594 29133 ft 438 kts 270°
2026-05-01 13:41 50.06842 12.51847 29530 ft 440 kts 270°
2026-05-01 13:41 50.06706 12.47086 29925 ft 442 kts 270°
2026-05-01 13:41 50.06566 12.42287 30311 ft 444 kts 270°
2026-05-01 13:42 50.06467 12.37479 30664 ft 445 kts 271°
2026-05-01 13:42 50.06478 12.32659 31002 ft 446 kts 273°
2026-05-01 13:42 50.06562 12.27825 31316 ft 448 kts 274°
2026-05-01 13:42 50.06678 12.22976 31616 ft 449 kts 274°
2026-05-01 13:43 50.06794 12.18113 31925 ft 451 kts 274°
2026-05-01 13:43 50.06888 12.13244 32330 ft 450 kts 274°
2026-05-01 13:43 50.06958 12.08383 32759 ft 449 kts 273°
2026-05-01 13:43 50.07007 12.03535 33166 ft 448 kts 273°
2026-05-01 13:44 50.07044 11.98692 33573 ft 447 kts 272°
2026-05-01 13:44 50.07077 11.93865 33965 ft 446 kts 272°
2026-05-01 13:44 50.07109 11.89044 34393 ft 444 kts 272°
2026-05-01 13:44 50.07142 11.84242 34753 ft 443 kts 272°
2026-05-01 13:45 50.07173 11.79450 35101 ft 442 kts 272°
2026-05-01 13:45 50.07206 11.74679 35433 ft 441 kts 272°
2026-05-01 13:45 50.07027 11.69919 35746 ft 442 kts 263°
2026-05-01 13:45 50.06302 11.65278 36051 ft 443 kts 252°
2026-05-01 13:46 50.05045 11.60889 36333 ft 445 kts 241°
2026-05-01 13:46 50.03298 11.56925 36612 ft 446 kts 231°
2026-05-01 13:46 50.01156 11.53432 36869 ft 446 kts 226°
2026-05-01 13:46 49.98961 11.50021 37138 ft 446 kts 226°
2026-05-01 13:47 49.96773 11.46611 37413 ft 445 kts 226°
2026-05-01 13:47 49.94590 11.43193 37664 ft 445 kts 226°
2026-05-01 13:47 49.92309 11.39954 37933 ft 444 kts 218°
2026-05-01 13:47 49.89835 11.37104 38197 ft 443 kts 217°
2026-05-01 13:48 49.87342 11.34276 38370 ft 445 kts 217°
2026-05-01 13:48 49.82328 11.28610 38370 ft 446 kts 217°
2026-05-01 13:49 49.77331 11.22913 38357 ft 446 kts 221°
2026-05-01 13:49 49.72941 11.16169 38366 ft 445 kts 227°
2026-05-01 13:50 49.68645 11.09274 38359 ft 445 kts 227°
2026-05-01 13:50 49.64336 11.02403 38354 ft 445 kts 227°
2026-05-01 13:51 49.60030 10.95554 38359 ft 445 kts 227°
2026-05-01 13:51 49.55716 10.88709 38355 ft 445 kts 227°
2026-05-01 13:52 49.51398 10.81878 38353 ft 445 kts 227°
2026-05-01 13:52 49.47080 10.75056 38361 ft 445 kts 227°
2026-05-01 13:53 49.42764 10.68266 38366 ft 444 kts 227°
2026-05-01 13:53 49.36338 10.58011 38367 ft 444 kts 228°
2026-05-01 13:54 49.32085 10.51158 38368 ft 444 kts 227°
2026-05-01 13:54 49.27715 10.44462 38371 ft 444 kts 226°
2026-05-01 13:55 49.23309 10.37833 38370 ft 444 kts 226°
2026-05-01 13:55 49.18944 10.31144 38356 ft 444 kts 227°
2026-05-01 13:56 49.14618 10.24397 38348 ft 444 kts 229°
2026-05-01 13:56 49.10740 10.17085 38335 ft 443 kts 233°
2026-05-01 13:57 49.07530 10.10998 38339 ft 443 kts 232°
2026-05-01 13:57 49.03001 10.02481 38333 ft 442 kts 232°
2026-05-01 13:58 48.99135 9.95194 38336 ft 442 kts 233°
2026-05-01 13:58 48.95265 9.87925 38335 ft 442 kts 232°
2026-05-01 13:59 48.91388 9.80666 38330 ft 442 kts 232°
2026-05-01 13:59 48.87510 9.73409 38327 ft 442 kts 232°
2026-05-01 14:00 48.83629 9.66168 38323 ft 442 kts 232°
2026-05-01 14:00 48.79743 9.58951 38326 ft 441 kts 232°
2026-05-01 14:01 48.75859 9.51761 38334 ft 440 kts 232°
2026-05-01 14:01 48.71979 9.44584 38330 ft 439 kts 232°
2026-05-01 14:02 48.68106 9.37444 38294 ft 439 kts 232°
2026-05-01 14:02 48.64232 9.30315 38292 ft 438 kts 232°
2026-05-01 14:03 48.60398 9.23150 38292 ft 438 kts 234°
2026-05-01 14:03 48.56851 9.15687 38292 ft 437 kts 237°
2026-05-01 14:04 48.53411 9.08125 38299 ft 437 kts 237°
2026-05-01 14:04 48.50523 9.01892 38319 ft 436 kts 236°
2026-05-01 14:05 48.46408 8.93219 38316 ft 435 kts 236°
2026-05-01 14:05 48.42871 8.85848 38314 ft 434 kts 235°
2026-05-01 14:06 48.39341 8.78486 38311 ft 433 kts 235°
2026-05-01 14:06 48.35820 8.71120 38310 ft 433 kts 236°
2026-05-01 14:07 48.32297 8.63776 38303 ft 433 kts 236°
2026-05-01 14:08 48.27004 8.52805 38303 ft 432 kts 235°
2026-05-01 14:08 48.23479 8.45510 38304 ft 431 kts 235°
2026-05-01 14:09 48.19952 8.38231 38303 ft 431 kts 235°
2026-05-01 14:09 48.16033 8.31464 38300 ft 432 kts 220°
2026-05-01 14:10 48.11059 8.26390 38296 ft 433 kts 213°
2026-05-01 14:10 48.05998 8.21528 38296 ft 433 kts 213°
2026-05-01 14:11 48.00941 8.16652 38300 ft 432 kts 213°
2026-05-01 14:11 47.93353 8.09368 38298 ft 432 kts 213°
2026-05-01 14:12 47.88293 8.04533 38296 ft 432 kts 213°
2026-05-01 14:12 47.83237 7.99716 38296 ft 431 kts 213°
2026-05-01 14:13 47.79034 7.95714 38296 ft 431 kts 213°
2026-05-01 14:13 47.73128 7.90097 38282 ft 431 kts 213°
2026-05-01 14:14 47.68066 7.85294 38277 ft 432 kts 213°
2026-05-01 14:14 47.63005 7.80507 38277 ft 432 kts 213°
2026-05-01 14:15 47.57932 7.75727 38271 ft 432 kts 213°
2026-05-01 14:15 47.52858 7.70949 38274 ft 433 kts 213°
2026-05-01 14:16 47.50312 7.68559 38078 ft 434 kts 213°
2026-05-01 14:16 47.47768 7.66174 37802 ft 433 kts 213°
2026-05-01 14:16 47.45230 7.63796 37446 ft 429 kts 213°
2026-05-01 14:16 47.42719 7.61445 36952 ft 426 kts 213°
2026-05-01 14:17 47.41067 7.59901 36623 ft 424 kts 213°
2026-05-01 14:17 47.37782 7.56834 35967 ft 420 kts 213°
2026-05-01 14:17 47.36115 7.55279 35624 ft 418 kts 213°
2026-05-01 14:17 47.33661 7.52990 35115 ft 416 kts 213°
2026-05-01 14:18 47.31223 7.50717 34615 ft 414 kts 213°
2026-05-01 14:18 47.28787 7.48455 34080 ft 413 kts 213°
2026-05-01 14:18 47.25582 7.45489 33421 ft 409 kts 212°
2026-05-01 14:18 47.23961 7.43990 33092 ft 406 kts 212°
2026-05-01 14:19 47.21579 7.41786 32601 ft 403 kts 212°
2026-05-01 14:19 47.19216 7.39595 32115 ft 400 kts 212°
2026-05-01 14:19 47.16969 7.37218 31650 ft 396 kts 221°
2026-05-01 14:19 47.15041 7.34363 31185 ft 393 kts 230°
2026-05-01 14:20 47.13346 7.31227 30740 ft 390 kts 231°
2026-05-01 14:20 47.09998 7.25041 29799 ft 383 kts 231°
2026-05-01 14:20 47.08343 7.22006 29378 ft 378 kts 231°
2026-05-01 14:21 47.06707 7.19014 28964 ft 374 kts 231°
2026-05-01 14:21 47.05093 7.16063 28584 ft 369 kts 231°
2026-05-01 14:21 47.03496 7.13139 28177 ft 365 kts 231°
2026-05-01 14:22 47.00353 7.07383 27360 ft 358 kts 231°
2026-05-01 14:22 46.98824 7.04581 26951 ft 356 kts 231°
2026-05-01 14:22 46.97263 7.01720 26529 ft 353 kts 231°
2026-05-01 14:22 46.95733 6.98923 26114 ft 351 kts 231°
2026-05-01 14:23 46.94205 6.96137 25683 ft 350 kts 231°
2026-05-01 14:23 46.92684 6.93370 25248 ft 349 kts 230°
2026-05-01 14:23 46.91175 6.90656 24813 ft 348 kts 227°
2026-05-01 14:23 46.89512 6.88101 24348 ft 347 kts 225°
2026-05-01 14:24 46.87839 6.85570 23922 ft 346 kts 225°
2026-05-01 14:24 46.86168 6.83041 23424 ft 346 kts 225°
2026-05-01 14:24 46.84506 6.80522 22982 ft 343 kts 225°
2026-05-01 14:24 46.82854 6.78019 22553 ft 341 kts 225°
2026-05-01 14:25 46.81215 6.75538 22125 ft 339 kts 225°
2026-05-01 14:25 46.79585 6.73076 21704 ft 337 kts 225°
2026-05-01 14:25 46.77959 6.70625 21290 ft 335 kts 225°
2026-05-01 14:25 46.76338 6.68183 20877 ft 334 kts 225°
2026-05-01 14:26 46.74726 6.65752 20459 ft 333 kts 225°
2026-05-01 14:26 46.71516 6.60898 19643 ft 331 kts 225°
2026-05-01 14:26 46.69919 6.58491 19242 ft 331 kts 225°
2026-05-01 14:27 46.68317 6.56082 18834 ft 330 kts 225°
2026-05-01 14:27 46.66717 6.53681 18406 ft 330 kts 225°
2026-05-01 14:27 46.65120 6.51288 17983 ft 329 kts 225°
2026-05-01 14:28 46.61951 6.46546 17188 ft 325 kts 224°
2026-05-01 14:28 46.60380 6.44197 16808 ft 323 kts 224°
2026-05-01 14:28 46.58815 6.41860 16429 ft 322 kts 224°
2026-05-01 14:28 46.57253 6.39529 16059 ft 321 kts 224°
2026-05-01 14:29 46.55701 6.37215 15676 ft 320 kts 224°
2026-05-01 14:29 46.54151 6.34905 15308 ft 319 kts 224°
2026-05-01 14:30 46.49588 6.28149 14551 ft 306 kts 224°
2026-05-01 14:30 46.48100 6.25953 14315 ft 305 kts 224°
2026-05-01 14:30 46.46617 6.23762 14072 ft 303 kts 224°
2026-05-01 14:31 46.43672 6.19418 13574 ft 301 kts 224°
2026-05-01 14:31 46.42201 6.17259 13331 ft 300 kts 224°
2026-05-01 14:31 46.40736 6.15114 13096 ft 299 kts 224°
2026-05-01 14:31 46.39277 6.12976 12848 ft 298 kts 224°
2026-05-01 14:32 46.37827 6.10852 12580 ft 295 kts 224°
2026-05-01 14:32 46.36389 6.08744 12245 ft 293 kts 224°
2026-05-01 14:32 46.34958 6.06647 11913 ft 292 kts 224°
2026-05-01 14:32 46.33536 6.04560 11585 ft 290 kts 224°
2026-05-01 14:33 46.32122 6.02482 11250 ft 289 kts 224°
2026-05-01 14:33 46.30717 6.00421 10931 ft 287 kts 224°
2026-05-01 14:33 46.29314 5.98368 10592 ft 286 kts 224°
2026-05-01 14:33 46.27914 5.96324 10270 ft 285 kts 224°
2026-05-01 14:34 46.26522 5.94291 9948 ft 284 kts 224°
2026-05-01 14:34 46.25135 5.92269 9582 ft 283 kts 224°
2026-05-01 14:34 46.23751 5.90255 9198 ft 281 kts 224°
2026-05-01 14:34 46.22376 5.88256 8826 ft 280 kts 224°
2026-05-01 14:35 46.21006 5.86267 8447 ft 279 kts 224°
2026-05-01 14:35 46.19647 5.84293 8103 ft 276 kts 224°
2026-05-01 14:35 46.18295 5.82333 7726 ft 274 kts 224°
2026-05-01 14:35 46.16948 5.80381 7473 ft 274 kts 224°
2026-05-01 14:36 46.15564 5.78550 7236 ft 267 kts 213°
2026-05-01 14:36 46.13898 5.77520 7002 ft 258 kts 190°
2026-05-01 14:36 46.12138 5.77500 6765 ft 250 kts 171°
2026-05-01 14:36 46.10450 5.77897 6598 ft 242 kts 171°
2026-05-01 14:37 46.08797 5.78278 6417 ft 239 kts 171°
2026-05-01 14:37 46.07164 5.78658 6243 ft 235 kts 168°
2026-05-01 14:37 46.05753 5.79703 6084 ft 229 kts 133°
2026-05-01 14:37 46.05091 5.81707 5983 ft 222 kts 96°
2026-05-01 14:38 46.05372 5.83792 5989 ft 208 kts 61°
2026-05-01 14:38 46.06275 5.85355 5893 ft 202 kts 45°
2026-05-01 14:38 46.07266 5.86770 5652 ft 200 kts 45°
2026-05-01 14:38 46.08249 5.88184 5398 ft 199 kts 46°
2026-05-01 14:39 46.09215 5.89586 5146 ft 195 kts 46°
2026-05-01 14:39 46.10161 5.90961 4888 ft 192 kts 46°
2026-05-01 14:39 46.11092 5.92316 4641 ft 189 kts 46°
2026-05-01 14:39 46.12010 5.93653 4390 ft 186 kts 46°
2026-05-01 14:40 46.12914 5.94970 4148 ft 183 kts 46°
2026-05-01 14:40 46.13806 5.96270 3909 ft 181 kts 46°
2026-05-01 14:40 46.14689 5.97559 3675 ft 180 kts 46°
2026-05-01 14:40 46.15569 5.98843 3442 ft 179 kts 45°
2026-05-01 14:41 46.16439 6.00113 3202 ft 177 kts 45°
2026-05-01 14:41 46.17299 6.01369 2955 ft 175 kts 45°
2026-05-01 14:41 46.18134 6.02589 2741 ft 166 kts 45°
2026-05-01 14:41 46.18925 6.03747 2522 ft 158 kts 45°
2026-05-01 14:42 46.19679 6.04848 2312 ft 152 kts 46°
2026-05-01 14:42 46.20417 6.05929 2107 ft 149 kts 46°
2026-05-01 14:42 46.21144 6.06993 1891 ft 148 kts 46°
2026-05-01 14:42 46.21868 6.08052 1706 ft 148 kts 46°
2026-05-01 14:43 46.22590 6.09110 1506 ft 148 kts 46°
2026-05-01 14:43 46.23279 6.10124 1404 ft 125 kts 45°
2026-05-01 14:43 46.23750 6.10816 1381 ft 57 kts 45°
2026-05-01 14:43 46.23854 6.11031 1380 ft 15 kts 114°
2026-05-01 14:44 46.23796 6.11078 1377 ft 8 kts 173°
2026-05-01 14:44 46.23701 6.11072 1384 ft 8 kts 204°
2026-05-01 14:44 46.23644 6.11105 1403 ft 12 kts 135°
2026-05-01 14:45 46.23569 6.11154 1400 ft 11 kts 210°
2026-05-01 14:45 46.23472 6.11165 1393 ft 4 kts 136°
2026-05-01 14:45 46.23464 6.11176 1396 ft 0 kts 136°